Dumas, TX

2:18 AM CDT on April 24, 2018 (GMT -0500)
Moore County

Weather History for KDUX - November, 2013

Change the Weather History Date:

Wednesday, November 27, 2013

  Actual Average (KDHT) Record (KDHT)
Temperature  
Mean Temperature 36 °F -  
Max Temperature 52 °F 51 °F 84 °F (2017)
Min Temperature 21 °F 25 °F -4 °F (1976)
Degree Days  
Heating Degree Days 28    
Moisture  
Dew Point 28 °F    
Average Humidity 77    
Maximum Humidity 94    
Minimum Humidity 45    
Precipitation  
Precipitation 0.00 in - - ()
Sea Level Pressure  
Sea Level Pressure 30.24 in    
Wind  
Wind Speed 9 mph (SSW)    
Max Wind Speed 18 mph    
Max Gust Speed 21 mph    
Visibility 10 miles    
Events      
Averages and records for this station are not official NWS values.
T = Trace of Precipitation, MM = Missing Value Source: NWS Daily Summary

Daily Weather History Graph

Daily Weather History Graph

Search for Another Location

Airport or City:

Astronomy

Nov. 27, 2013 Rise Set
Actual Time 7:36 AM CST 5:35 PM CST
Civil Twilight 7:08 AM CST 6:02 PM CST
Nautical Twilight 6:36 AM CST 6:34 PM CST
Astronomical Twilight 6:06 AM CST 7:05 PM CST
Moon 1:50 AM CST (11/27) 2:04 PM CST (11/27)
Length of Visible Light 10h 54m
Length of Day
9h 58m
Waning Crescent, 31% of the Moon is Illuminated
Nov 27
Waning Crescent
Dec 2
New
Dec 9
First Quarter
Dec 17
Full
Dec 25
Last Quarter

Hourly Weather History & Observations

Time (CST) Temp. Windchill Dew Point Humidity Pressure Visibility Wind Dir Wind Speed Gust Speed Precip Events Conditions
12:15 AM 26.6 °F 18.2 °F 23.7 °F 89% 30.38 in 10.0 mi WSW 8.1 mph - N/A   Clear
12:35 AM 27.5 °F 20.2 °F 24.6 °F 89% 30.37 in 10.0 mi WSW 6.9 mph - N/A   Clear
12:55 AM 27.3 °F 20.9 °F 24.1 °F 88% 30.36 in 10.0 mi SW 5.8 mph - N/A   Clear
1:15 AM 27.0 °F 18.7 °F 23.9 °F 88% 30.36 in 10.0 mi SW 8.1 mph - N/A   Clear
1:35 AM 27.0 °F 18.7 °F 23.9 °F 88% 30.36 in 10.0 mi SSW 8.1 mph - N/A   Clear
1:55 AM 26.4 °F 17.3 °F 23.7 °F 90% 30.35 in 10.0 mi SSW 9.2 mph - N/A   Clear
2:15 AM 26.6 °F 19.1 °F 23.9 °F 90% 30.35 in 10.0 mi SW 6.9 mph - N/A   Clear
2:35 AM 25.0 °F 17.1 °F 22.8 °F 91% 30.35 in 10.0 mi SSE 6.9 mph - N/A   Clear
2:55 AM 23.9 °F 16.8 °F 21.9 °F 92% 30.35 in 10.0 mi South 5.8 mph - N/A   Clear
3:15 AM 23.9 °F 15.8 °F 22.1 °F 93% 30.35 in 10.0 mi South 6.9 mph - N/A   Clear
3:35 AM 24.8 °F 19.1 °F 23.4 °F 94% 30.35 in 10.0 mi SSW 4.6 mph - N/A   Clear
3:55 AM 24.3 °F 18.4 °F 22.6 °F 94% 30.34 in 10.0 mi SSW 4.6 mph - N/A   Clear
4:15 AM 25.3 °F 17.6 °F 23.7 °F 94% 30.33 in 10.0 mi SSW 6.9 mph - N/A   Clear
4:35 AM 24.4 °F 15.6 °F 22.8 °F 94% 30.33 in 10.0 mi SSW 8.1 mph - N/A   Clear
4:55 AM 24.4 °F 16.5 °F 22.6 °F 93% 30.33 in 10.0 mi SW 6.9 mph - N/A   Clear
5:15 AM 25.2 °F 18.3 °F 23.4 °F 93% 30.32 in 10.0 mi SSW 5.8 mph - N/A   Clear
5:35 AM 23.9 °F 16.8 °F 22.5 °F 94% 30.31 in 10.0 mi South 5.8 mph - N/A   Clear
5:55 AM 23.5 °F 16.4 °F 22.1 °F 94% 30.31 in 10.0 mi SSW 5.8 mph - N/A   Clear
6:15 AM 24.1 °F 16.0 °F 22.3 °F 93% 30.31 in 10.0 mi SW 6.9 mph - N/A   Clear
6:35 AM 21.6 °F 14.0 °F 19.8 °F 93% 30.31 in 10.0 mi SSW 5.8 mph - N/A   Clear
6:55 AM 21.0 °F 13.4 °F 19.4 °F 93% 30.31 in 10.0 mi SSW 5.8 mph - N/A   Clear
7:15 AM 21.4 °F 16.6 °F 19.6 °F 93% 30.31 in 10.0 mi South 3.5 mph - N/A   Clear
7:35 AM 21.4 °F 11.9 °F 19.8 °F 93% 30.31 in 10.0 mi South 8.1 mph - N/A   Clear
7:55 AM 23.9 °F 15.8 °F 22.3 °F 94% 30.31 in 10.0 mi SSW 6.9 mph - N/A   Clear
8:15 AM 25.7 °F 18.0 °F 23.9 °F 93% 30.31 in 10.0 mi SW 6.9 mph - N/A   Clear
8:35 AM 28.0 °F 21.7 °F 25.7 °F 91% 30.31 in 10.0 mi SW 5.8 mph - N/A   Clear
8:55 AM 30.0 °F 22.4 °F 27.3 °F 90% 30.30 in 10.0 mi SW 8.1 mph - N/A   Clear
9:15 AM 31.6 °F 24.4 °F 28.4 °F 88% 30.30 in 10.0 mi SW 8.1 mph - N/A   Clear
9:35 AM 32.2 °F 24.4 °F 29.1 °F 88% 30.30 in 10.0 mi SW 9.2 mph - N/A   Clear
9:55 AM 34.2 °F 28.2 °F 30.4 °F 86% 30.30 in 10.0 mi SW 6.9 mph - N/A   Clear
10:15 AM 35.6 °F 28.0 °F 30.9 °F 83% 30.30 in 10.0 mi SSW 10.4 mph - N/A   Clear
10:35 AM 37.6 °F 30.0 °F 32.0 °F 80% 30.29 in 10.0 mi SW 11.5 mph - N/A   Clear
10:55 AM 38.8 °F 31.2 °F 32.0 °F 76% 30.28 in 10.0 mi SW 12.7 mph - N/A   Clear
11:15 AM 40.5 °F 32.8 °F 32.2 °F 72% 30.27 in 10.0 mi SW 13.8 mph - N/A   Clear
11:35 AM 42.1 °F 34.9 °F 31.8 °F 67% 30.27 in 10.0 mi SW 13.8 mph - N/A   Clear
11:55 AM 43.7 °F 36.6 °F 32.0 °F 63% 30.26 in 10.0 mi SW 15.0 mph - N/A   Clear
12:15 PM 45.0 °F 38.5 °F 32.0 °F 60% 30.25 in 10.0 mi SW 13.8 mph - N/A   Clear
12:35 PM 45.9 °F 39.1 °F 31.6 °F 58% 30.23 in 10.0 mi SW 16.1 mph - N/A   Clear
12:55 PM 47.3 °F - 31.1 °F 53% 30.21 in 10.0 mi SW 13.8 mph - N/A   Clear
1:15 PM 48.7 °F - 31.1 °F 51% 30.20 in 10.0 mi SW 16.1 mph - N/A   Clear
1:35 PM 49.3 °F - 30.9 °F 49% 30.20 in 10.0 mi SW 15.0 mph - N/A   Clear
1:55 PM 50.7 °F - 32.2 °F 49% 30.19 in 10.0 mi SW 17.3 mph - N/A   Clear
2:15 PM 50.9 °F - 31.6 °F 48% 30.17 in 10.0 mi SW 18.4 mph - N/A   Clear
2:35 PM 51.3 °F - 31.1 °F 46% 30.16 in 10.0 mi SW 16.1 mph - N/A   Clear
2:55 PM 52.0 °F - 30.9 °F 45% 30.15 in 10.0 mi SSW 17.3 mph - N/A   Clear
3:15 PM 52.3 °F - 31.5 °F 45% 30.15 in 10.0 mi SW 16.1 mph 20.7 mph N/A   Clear
3:35 PM 51.8 °F - 31.5 °F 46% 30.15 in 10.0 mi SSW 17.3 mph - N/A   Clear
3:55 PM 52.2 °F - 32.2 °F 47% 30.14 in 10.0 mi SW 13.8 mph - N/A   Clear
4:15 PM 52.0 °F - 32.7 °F 48% 30.14 in 10.0 mi SSW 15.0 mph - N/A   Clear
4:35 PM 51.1 °F - 32.9 °F 50% 30.14 in 10.0 mi SSW 11.5 mph - N/A   Clear
4:55 PM 50.0 °F - 32.9 °F 52% 30.14 in 10.0 mi SSW 10.4 mph - N/A   Clear
5:15 PM 47.7 °F - 32.4 °F 55% 30.14 in 10.0 mi South 9.2 mph - N/A   Clear
5:35 PM 45.1 °F 40.3 °F 32.0 °F 60% 30.14 in 10.0 mi South 9.2 mph - N/A   Clear
5:55 PM 42.1 °F 36.6 °F 32.0 °F 67% 30.14 in 10.0 mi SSW 9.2 mph - N/A   Clear
6:15 PM 40.5 °F 34.6 °F 32.0 °F 72% 30.15 in 10.0 mi South 9.2 mph - N/A   Clear
6:35 PM 40.5 °F 34.1 °F 32.0 °F 72% 30.15 in 10.0 mi SSW 10.4 mph - N/A   Clear
6:55 PM 40.1 °F 33.6 °F 32.0 °F 73% 30.14 in 10.0 mi SSW 10.4 mph - N/A   Clear
7:15 PM 39.2 °F 32.5 °F 32.0 °F 75% 30.15 in 10.0 mi SSW 10.4 mph - N/A   Clear
7:35 PM 38.5 °F 31.1 °F 32.0 °F 78% 30.15 in 10.0 mi SSW 11.5 mph - N/A   Clear
7:55 PM 37.4 °F 30.3 °F 31.8 °F 80% 30.15 in 10.0 mi SSW 10.4 mph - N/A   Clear
8:15 PM 36.9 °F 29.1 °F 32.0 °F 83% 30.15 in 10.0 mi SSW 11.5 mph - N/A   Clear
8:35 PM 36.5 °F 28.7 °F 32.0 °F 84% 30.15 in 10.0 mi SSW 11.5 mph - N/A   Clear
8:55 PM 36.5 °F 29.2 °F 31.8 °F 83% 30.15 in 10.0 mi SSW 10.4 mph - N/A   Clear
9:15 PM 36.1 °F 28.2 °F 31.5 °F 83% 30.15 in 10.0 mi SW 11.5 mph - N/A   Clear
9:35 PM 36.9 °F 28.7 °F 31.1 °F 80% 30.15 in 10.0 mi SW 12.7 mph - N/A   Clear
9:55 PM 36.7 °F 28.4 °F 31.1 °F 80% 30.15 in 10.0 mi SW 12.7 mph - N/A   Clear
10:15 PM 37.4 °F 28.5 °F 31.1 °F 78% 30.15 in 10.0 mi SW 15.0 mph - N/A   Clear
10:35 PM 36.9 °F 28.7 °F 31.1 °F 80% 30.14 in 10.0 mi SSW 12.7 mph - N/A   Clear
10:55 PM 36.5 °F 28.2 °F 31.1 °F 81% 30.14 in 10.0 mi SW 12.7 mph - N/A   Clear
11:15 PM 36.1 °F 27.7 °F 31.1 °F 82% 30.14 in 10.0 mi SW 12.7 mph - N/A   Clear
11:35 PM 36.0 °F 28.0 °F 30.9 °F 82% 30.14 in 10.0 mi SW 11.5 mph - N/A   Clear
11:55 PM 35.6 °F 27.1 °F 30.6 °F 82% 30.14 in 10.0 mi SW 12.7 mph - N/A   Clear